STARLINK-36863

Last updated on Fri Mar 27 2026 00:02:06 GMT+0000 (Coordinated Universal Time)

1 67949U 26037T 26085.50002314 .00110910 00000+0 18746-2 0 9998 2 67949 43.0003 96.9614 0001015 281.3069 239.4931 15.50505171 5903
UTC large
Height (km)
Speed (km/s)
/
Latitude / Longitude
Inclination (degrees)
Orbital Period (minutes)
Azimuth
Elevation
Range (km)
Doppler Factor

Next 0 passes for location: London (51.5072 / 0.1276)

Sorry there are no passes over London.